{"data":{"norad_id":69016,"epoch":"2026-05-25T04:08:36.084768Z","epoch_age_seconds":53278,"freshness":"FRESH","line1":"1 69016U 26100AN  26145.17263987  .00002787  00000+0  12790-3 0  9997","line2":"2 69016  97.4055  43.4348 0009419 123.5792 236.6345 15.21213597  3314","mean_motion":15.21213597,"eccentricity":0.0009419,"inclination_deg":97.4055,"raan_deg":43.4348,"arg_perigee_deg":123.5792,"mean_anomaly_deg":236.6345,"bstar":0.0001279,"rev_number":331,"period_min":94.661262747049,"perigee_km":495.69828110835,"apogee_km":508.65942010772,"semimajor_km":6880.315850608,"source":"CELESTRAK","updated_at":"2026-05-25T13:38:09.040641Z"}}